ALESUND / VIGRA current weather conditions

sailwx.info

Wind from 120 at 6 knots

Air temperature 9.0° C
Visibility: greater than 5.4 NM
Dewpoint 6.0° C
Present weather: Light rain.

Last reported at 2015-May-24 11:20 UTC.
Time now 2015-May-24 13:17 UTC

Location: N 62°34' E 006°07'.
View on Google Maps.

See reports from other nearby stations

  
Tides and Currents Weather Stations Pressure Air Temp Water Temp Dewpoint Dewpoint Depression Visibility Wind Speed Wind Dir Waves Ship Positions
date/time (UTC)wind fromknots sea level pressurealtimeterstation pressurevisibilityair tempwater tempwave heightnotes
2015-May-24 12:20 140 8 5.4 8.0 Light rain.
2015-May-24 11:50 120 6 5.4 9.0 Light rain.
2015-May-24 11:20 120 6 5.4 9.0 Light rain.
2015-May-24 10:50 150 4 5.4 9.0 Light rain.
2015-May-24 10:20 5.4 8.0 Light rain.
2015-May-24 09:50 250 4 5.4 8.0 Light rain.
2015-May-24 09:20 260 5 5.4 8.0 Light rain.
2015-May-24 08:50 170 7 5.4 8.0 Light rain.
2015-May-24 08:20 140 10 5.4 8.0 Light rain.
2015-May-24 07:50 130 11 5.4 8.0
2015-May-24 07:20 130 11 5.4 7.0 Light drizzle.
2015-May-24 06:50 130 10 5.4 7.0
2015-May-24 05:50 120 3 5.4 6.0 Light drizzle.
2015-May-24 05:20 130 4 5.4 6.0
2015-May-24 04:20 100 3 6.0
2015-May-24 03:50 160 3 5.0
2015-May-24 03:20 130 5 5.4 5.0
2015-May-24 02:50 130 4 5.4 5.0
2015-May-24 02:20 130 6 5.4 5.0
2015-May-24 01:50 160 4 5.4 6.0
2015-May-24 01:20 220 5 5.4 6.0
2015-May-24 00:50 220 6 5.4 5.0
2015-May-24 00:20 240 9 5.4 6.0
2015-May-23 23:50 230 9 5.4 6.0
2015-May-23 23:20 230 10 5.4 6.0
2015-May-23 22:50 230 9 5.4 6.0
2015-May-23 22:20 240 11 5.4 5.0
2015-May-23 21:50 240 11 5.4 5.0
2015-May-23 21:20 250 12 5.4 6.0
2015-May-23 20:50 220 10 5.4 6.0
2015-May-23 20:20 240 11 5.4 6.0
2015-May-23 19:50 250 10 5.4 6.0
2015-May-23 19:20 260 11 5.4 6.0
2015-May-23 18:50 240 15 5.4 6.0
2015-May-23 18:20 250 13 5.4 6.0 Showers in the vicinity.
2015-May-23 17:50 250 12 5.4 6.0 Showers in the vicinity.
2015-May-23 17:20 250 14 5.4 7.0 Showers in the vicinity.
2015-May-23 16:50 250 14 5.4 7.0 Showers in the vicinity.
2015-May-23 16:20 240 14 5.4 6.0 Showers in the vicinity.
2015-May-23 15:50 250 16 5.4 7.0 Showers in the vicinity.
2015-May-23 15:20 260 14 5.4 7.0 Showers in the vicinity.
2015-May-23 14:50 270 15 5.4 7.0 Showers in the vicinity.
2015-May-23 14:20 270 11 5.4 6.0 Showers in the vicinity.
2015-May-23 13:50 260 11 5.4 6.0 Showers in the vicinity.
2015-May-23 13:20 260 15 5.4 6.0 Light rain showers.
2015-May-23 12:20 260 15 5.4 7.0
2015-May-23 11:50 250 16 5.4 5.0 Light drizzle.
2015-May-23 11:20 270 17 5.4 7.0
2015-May-23 10:20 270 14 5.4 7.0
2015-May-23 09:50 280 14 gusting 25 5.4 7.0
2015-May-23 09:20 280 15 5.4 7.0 Light rain showers.
2015-May-23 08:50 290 15 5.4 7.0 Showers in the vicinity.
2015-May-23 07:50 290 13 5.4 7.0 Showers in the vicinity.
2015-May-23 07:20 280 14 5.4 7.0 Showers in the vicinity.
2015-May-23 06:50 290 15 5.4 6.0 Showers in the vicinity.
2015-May-23 06:20 290 16 5.4 7.0 Light rain.
2015-May-23 05:50 290 16 5.4 7.0 Showers in the vicinity.
2015-May-23 05:20 310 14 gusting 25 5.4 7.0 Showers in the vicinity.
2015-May-23 04:50 310 16 4.9 7.0 Light rain showers.
2015-May-23 04:20 290 15 5.4 7.0 Light rain showers.
2015-May-23 03:50 290 10 5.4 7.0 Light rain showers.
2015-May-23 03:20 300 11 5.4 7.0
2015-May-23 02:50 320 7 5.4 7.0
2015-May-23 02:20 300 12 5.4 7.0
2015-May-23 01:50 320 10 5.4 7.0
2015-May-23 01:20 320 13 5.4 7.0
2015-May-23 00:50 270 12 5.4 6.0
2015-May-23 00:20 270 11 5.4 6.0
2015-May-22 23:50 260 13 5.4 6.0 Light rain.
2015-May-22 23:20 240 15 5.4 6.0
2015-May-22 22:50 240 17 5.4 6.0
2015-May-22 22:20 240 16 5.4 6.0
2015-May-22 21:50 240 18 gusting 29 5.4 5.0
2015-May-22 21:20 240 15 5.4 5.0
2015-May-22 20:50 230 14 5.4 5.0
2015-May-22 20:20 270 15 5.4 4.0 Light rain showers.
2015-May-22 19:50 230 18 5.4 7.0 Showers in the vicinity.
2015-May-22 19:20 220 10 5.4 6.0 Light rain showers.
2015-May-22 18:50 230 16 5.4 6.0 Showers in the vicinity.
2015-May-22 18:20 230 17 5.4 6.0 Showers in the vicinity.
2015-May-22 17:50 220 16 5.4 6.0 Showers in the vicinity.
2015-May-22 17:20 220 17 5.4 6.0 Light rain.
2015-May-22 16:50 240 20 5.4 8.0 Showers in the vicinity.
2015-May-22 16:20 230 18 gusting 33 5.4 6.0 Light rain showers.
2015-May-22 15:50 240 14 5.4 6.0 Showers in the vicinity.
2015-May-22 15:20 210 16 5.4 7.0 Rain showers.
2015-May-22 14:50 190 12 5.4 7.0 Light rain.
2015-May-22 14:20 190 12 5.4 6.0 Light rain.
2015-May-22 13:20 200 17 5.4 6.0 Light rain.